Weather in Krasnenka

Russia / Novgorod Oblast     58°46′21″N   32°22′01″E
temp.,
°C
wind,
m/s
gust,
m/s
humid.,
%
clouds,
%
prec.,
mm/h
press.,
hPa
HPBL,
m
3 march, wed
wed300:00−2nw3109367 0.3 1017393
03:00−2wnw4119359 0.3 1018463
06:00−2wnw4109370 0.0 1016527
09:00−1wnw5109085 0.0 1016560
12:000w5983100 0.0 1014771
15:00+1w51077100 0.1 10121105
18:00+1w41279100 0.0 10091074
21:00+1w51396100 0.1 1006782
4 march, thu
thu400:000nw4997100 2.0 1004717
03:00−1nw3990100 2.1 1004619
06:00−4nw288867 0.0 1003323
09:00−4nnw268433 0.0 1003438
12:00−2nnw24700 0.0 1002699
15:00−1nw246510 0.0 10031088
18:00−3n2581100 0.1 1003244
21:00−5nnw378682 0.1 1004432
5 march, fri
fri500:00−6nw279097 0.0 1005474
03:00−5nw378897 0.1 1006558
06:00−6nw3689100 0.1 1007575
09:00−7nw3586100 0.2 1009573
12:00−5nw3476100 0.1 1010768
15:00−5nw3471100 0.2 1012898
18:00−6nw3585100 0.1 1013564
21:00−7nnw258999 0.3 1015469
6 march, sat
sat600:00−8nw129359 0.0 101668
03:00−9wnw229429 0.0 101788
06:00−9w269664 0.0 1016278
09:00−9wsw259073 0.1 1016235
12:00−5wsw47720 0.0 1014732
15:00−4sw5106631 0.0 10111254
18:00−4sw61463100 0.0 10061297
21:00−4sw81691100 1.2 10001306
7 march, sun
sun700:00−3sw71494100 1.9 9951123
03:00−2sw71495100 3.7 9891046
06:00−1sw71596100 1.9 9851166
09:00−7w6137083 4.0 9851847
12:00−7wsw71473100 0.2 9861627
15:00−6w81586100 1.3 9861513
18:00−5wnw71492100 1.6 9871293
21:00−7nnw71489100 3.0 9911078